When you browse on this site, cookies collect data to enhance your experience and personalize the content and advertising you see.
Visit our Privacy Policy to learn more. By continuing to use the site, you agree to this use of cookies and data.

Hourly Weather Cerny Most

Today, 28 September, Monday

Time Temperature Precipitation Wind Pressure Humidity
00:00 +8°C° 0 mm 1 mps 735 mmHg 83%
01:00 +7°C° 0 mm 2 mps 735 mmHg 86%
02:00 +8°C° 0 mm 1 mps 735 mmHg 87%
03:00 +8°C° 0 mm 1 mps 735 mmHg 88%
04:00 +7°C° 0 mm 1 mps 735 mmHg 89%
05:00 +8°C° 0 mm 1 mps 735 mmHg 87%
06:00 +8°C° 0 mm 1 mps 735 mmHg 86%
07:00 +9°C° 0 mm 1 mps 736 mmHg 85%
08:00 +10°C° 0.1 mm 1 mps 736 mmHg 82%
09:00 +10°C° 0.1 mm 1 mps 736 mmHg 80%
10:00 +11°C° 0.1 mm 1 mps 736 mmHg 77%
11:00 +11°C° 0.4 mm 1 mps 736 mmHg 81%
12:00 +10°C° 0.4 mm 1 mps 736 mmHg 84%
13:00 +10°C° 0.4 mm 1 mps 736 mmHg 88%
14:00 +10°C° 0.4 mm 1 mps 736 mmHg 90%
15:00 +10°C° 0.4 mm 1 mps 736 mmHg 91%
16:00 +10°C° 0.4 mm 1 mps 736 mmHg 92%
17:00 +10°C° 0.1 mm 1 mps 736 mmHg 93%
18:00 +10°C° 0.1 mm 1 mps 737 mmHg 93%
19:00 +10°C° 0.1 mm 1 mps 737 mmHg 93%
20:00 +10°C° 0 mm 1 mps 737 mmHg 93%
21:00 +10°C° 0 mm 1 mps 737 mmHg 93%
22:00 +9°C° 0 mm 2 mps 738 mmHg 92%
23:00 +9°C° 0 mm 2 mps 738 mmHg 92%

Tomorrow, 29 September, Tuesday

Time Temperature Precipitation Wind Pressure Humidity
00:00 +9°C° 0 mm 2 mps 738 mmHg 92%
01:00 +8°C° 0 mm 2 mps 738 mmHg 92%
02:00 +8°C° 0 mm 2 mps 738 mmHg 91%
03:00 +8°C° 0 mm 2 mps 738 mmHg 91%
04:00 +8°C° 0 mm 2 mps 738 mmHg 90%
05:00 +8°C° 0 mm 2 mps 738 mmHg 89%
06:00 +8°C° 0 mm 2 mps 738 mmHg 88%
07:00 +8°C° 0 mm 2 mps 739 mmHg 87%
08:00 +10°C° 0 mm 3 mps 739 mmHg 82%
09:00 +11°C° 0 mm 3 mps 739 mmHg 78%
10:00 +12°C° 0 mm 3 mps 739 mmHg 73%
11:00 +13°C° 0 mm 3 mps 739 mmHg 73%
12:00 +13°C° 0 mm 3 mps 739 mmHg 72%
13:00 +14°C° 0 mm 3 mps 739 mmHg 71%
14:00 +14°C° 0 mm 3 mps 739 mmHg 71%
15:00 +14°C° 0 mm 3 mps 739 mmHg 72%
16:00 +14°C° 0 mm 3 mps 739 mmHg 72%
17:00 +14°C° 0 mm 2 mps 739 mmHg 77%
18:00 +13°C° 0 mm 2 mps 739 mmHg 82%
19:00 +12°C° 0 mm 1 mps 740 mmHg 87%
20:00 +12°C° 0 mm 1 mps 740 mmHg 86%
21:00 +12°C° 0 mm 1 mps 740 mmHg 85%
22:00 +12°C° 0 mm 2 mps 740 mmHg 84%
23:00 +12°C° 0 mm 2 mps 740 mmHg 85%

Day after tomorrow, 30 September, Wednesday

Time Temperature Precipitation Wind Pressure Humidity
00:00 +10°C° 0 mm 2 mps 740 mmHg 86%
01:00 +10°C° 0 mm 2 mps 740 mmHg 87%
02:00 +9°C° 0 mm 2 mps 740 mmHg 88%
03:00 +9°C° 0 mm 2 mps 739 mmHg 89%
04:00 +9°C° 0 mm 3 mps 739 mmHg 91%
05:00 +9°C° 0 mm 2 mps 739 mmHg 90%
06:00 +9°C° 0 mm 2 mps 739 mmHg 90%
07:00 +9°C° 0 mm 2 mps 739 mmHg 89%
08:00 +12°C° 0 mm 2 mps 739 mmHg 84%
09:00 +13°C° 0 mm 2 mps 739 mmHg 79%
10:00 +15°C° 0 mm 2 mps 739 mmHg 73%
11:00 +15°C° 0 mm 2 mps 739 mmHg 72%
12:00 +16°C° 0 mm 2 mps 739 mmHg 70%
13:00 +16°C° 0 mm 2 mps 738 mmHg 68%
14:00 +16°C° 0 mm 2 mps 738 mmHg 69%
15:00 +16°C° 0 mm 2 mps 738 mmHg 69%
16:00 +16°C° 0 mm 2 mps 737 mmHg 70%
17:00 +15°C° 0 mm 2 mps 737 mmHg 74%
18:00 +14°C° 0 mm 2 mps 737 mmHg 78%
19:00 +13°C° 0 mm 1 mps 737 mmHg 83%
20:00 +13°C° 0 mm 1 mps 737 mmHg 84%
21:00 +12°C° 0 mm 1 mps 737 mmHg 85%
22:00 +12°C° 0 mm 1 mps 737 mmHg 86%
23:00 +12°C° 0 mm 1 mps 737 mmHg 86%

1 October, Thursday

Time Temperature Precipitation Wind Pressure Humidity
00:00 +12°C° 0 mm 1 mps 736 mmHg 87%
01:00 +11°C° 0 mm 1 mps 736 mmHg 88%
02:00 +11°C° 0 mm 1 mps 736 mmHg 88%
03:00 +11°C° 0 mm 1 mps 735 mmHg 88%
04:00 +11°C° 0 mm 1 mps 735 mmHg 88%
05:00 +11°C° 0 mm 1 mps 735 mmHg 87%
06:00 +12°C° 0 mm 1 mps 734 mmHg 86%
07:00 +12°C° 0 mm 1 mps 734 mmHg 85%
08:00 +13°C° 0 mm 1 mps 734 mmHg 80%
09:00 +14°C° 0 mm 1 mps 734 mmHg 76%
10:00 +15°C° 0 mm 1 mps 733 mmHg 72%
11:00 +18°C° 0 mm 1 mps 733 mmHg 67%
12:00 +19°C° 0 mm 1 mps 733 mmHg 63%
13:00 +20°C° 0 mm 1 mps 732 mmHg 59%
14:00 +20°C° 0 mm 1 mps 732 mmHg 59%
15:00 +18°C° 0 mm 0 mps 732 mmHg 59%
16:00 +18°C° 0 mm 0 mps 732 mmHg 60%
17:00 +17°C° 0 mm 0 mps 732 mmHg 65%
18:00 +15°C° 0 mm 0 mps 732 mmHg 70%
19:00 +14°C° 0 mm 0 mps 732 mmHg 76%
20:00 +15°C° 0 mm 1 mps 732 mmHg 78%
21:00 +14°C° 0 mm 1 mps 732 mmHg 81%
22:00 +14°C° 0 mm 1 mps 732 mmHg 83%
23:00 +13°C° 0 mm 1 mps 732 mmHg 85%

2 October, Friday

Time Temperature Precipitation Wind Pressure Humidity
00:00 +13°C° 0 mm 1 mps 732 mmHg 86%
01:00 +13°C° 0 mm 1 mps 732 mmHg 88%
02:00 +12°C° 0 mm 1 mps 732 mmHg 88%
03:00 +12°C° 0 mm 1 mps 732 mmHg 89%
04:00 +11°C° 0 mm 0 mps 732 mmHg 89%
05:00 +12°C° 0 mm 1 mps 732 mmHg 89%
06:00 +12°C° 0 mm 1 mps 732 mmHg 89%
07:00 +12°C° 0 mm 1 mps 732 mmHg 89%
08:00 +14°C° 0 mm 1 mps 732 mmHg 83%
09:00 +16°C° 0 mm 2 mps 732 mmHg 76%
10:00 +17°C° 0 mm 2 mps 731 mmHg 70%
11:00 +18°C° 0 mm 3 mps 731 mmHg 68%
12:00 +19°C° 0 mm 3 mps 731 mmHg 65%
13:00 +19°C° 0 mm 4 mps 731 mmHg 63%
14:00 +19°C° 0 mm 4 mps 730 mmHg 65%
15:00 +19°C° 0 mm 5 mps 730 mmHg 66%
16:00 +17°C° 0 mm 5 mps 730 mmHg 68%
17:00 +16°C° 0 mm 5 mps 730 mmHg 72%
18:00 +15°C° 0 mm 5 mps 730 mmHg 76%
19:00 +14°C° 0 mm 4 mps 730 mmHg 80%
20:00 +14°C° 0 mm 4 mps 730 mmHg 82%
21:00 +14°C° 0 mm 4 mps 730 mmHg 84%
22:00 +13°C° 0 mm 4 mps 730 mmHg 87%
23:00 +13°C° 0 mm 4 mps 729 mmHg 86%

3 October, Saturday

Time Temperature Precipitation Wind Pressure Humidity
00:00 +14°C° 0 mm 4 mps 729 mmHg 85%
01:00 +14°C° 0 mm 4 mps 729 mmHg 84%
02:00 +14°C° 0 mm 4 mps 729 mmHg 84%
03:00 +14°C° 0 mm 4 mps 728 mmHg 84%
04:00 +14°C° 0 mm 4 mps 728 mmHg 85%
05:00 +14°C° 0 mm 4 mps 728 mmHg 86%
06:00 +14°C° 0 mm 4 mps 728 mmHg 87%
07:00 +13°C° 0 mm 4 mps 728 mmHg 88%
08:00 +15°C° 0 mm 4 mps 728 mmHg 83%
09:00 +17°C° 0 mm 4 mps 728 mmHg 78%
10:00 +19°C° 0 mm 5 mps 728 mmHg 73%
11:00 +20°C° 0 mm 5 mps 728 mmHg 70%
12:00 +21°C° 0 mm 5 mps 728 mmHg 68%
13:00 +22°C° 0 mm 5 mps 728 mmHg 65%
14:00 +22°C° 0 mm 5 mps 727 mmHg 66%
15:00 +22°C° 0 mm 4 mps 727 mmHg 67%
16:00 +22°C° 0 mm 4 mps 727 mmHg 68%
17:00 +20°C° 0 mm 3 mps 727 mmHg 73%
18:00 +19°C° 0 mm 3 mps 727 mmHg 79%
19:00 +17°C° 0 mm 2 mps 727 mmHg 85%
20:00 +17°C° 0 mm 2 mps 728 mmHg 85%
21:00 +17°C° 0 mm 3 mps 728 mmHg 86%
22:00 +16°C° 0 mm 3 mps 728 mmHg 86%
23:00 +16°C° 0 mm 3 mps 728 mmHg 87%
Show more